Miscellaneous Local Product
Issued by NWS Hastings, NE

Home | Current Version | Previous Version | Text Only | Print | Product List | Glossary On
Versions: 1 2 3 4 5 6 7 8 9 10 11 12 13 14 15 16 17 18 19 20 21 22 23 24 25 26 27 28 29 30 31 32 33 34 35 36 37 38 39 40 41 42 43 44 45 46 47 48 49 50
437
AXUS43 KGID 210502
MISGRI

GID CWA HOURLY WEATHER ROUNDUP
NATIONAL WEATHER SERVICE HASTINGS NE
1100 PM CST FRI JAN 20 2017

NOTE: "FAIR" INDICATES FEW OR NO CLOUDS BELOW 12,000 FEET WITH NO
SIGNIFICANT WEATHER AND/OR OBSTRUCTIONS TO VISIBILITY.

...SOUTH CENTRAL NEBRASKA...

CITY           SKY/WX    TMP DP  RH WIND       PRES   REMARKS
GRAND ISLAND   CLOUDY    37  37 100 SW7       29.39S FOG     WCI  32
HASTINGS       CLOUDY    37  36  96 SW5       29.41R WCI  33
KEARNEY        CLOUDY    36 -11  13 CALM      29.40R
ORD            FOG       37  35  92 SW8       29.36F VSB 3/4 WCI  31
YORK           FOG       37  37 100 CALM      29.39F VSB 1/2
AURORA         FOG       38  38 100 SW6       29.39S VSB 1/4 WCI  33
LEXINGTON      CLOUDY    36  34  92 NW3       29.40S
HOLDREGE       CLOUDY    36  35  97 W9        29.40R WCI  29
HEBRON         FOG       37  37 100 CALM      29.40F VSB 1/2

...NEBRASKA PANHANDLE...

CITY           SKY/WX    TMP DP  RH WIND       PRES   REMARKS
CHADRON        CLOUDY    35  32  88 NW12      29.38S WCI  27
ALLIANCE       CLOUDY    31  30  96 W7        29.38S WCI  24
SCOTTSBLUFF    CLOUDY    32  29  88 W6        29.41R WCI  26
SIDNEY         CLOUDY    31  28  89 W8        29.41S WCI  23

...WESTERN AND NORTH CENTRAL NEBRASKA...

CITY           SKY/WX    TMP DP  RH WIND       PRES   REMARKS
VALENTINE      CLOUDY    34  29  82 SW8       29.35R WCI  27
AINSWORTH      CLOUDY    35  32  90 SW6       29.35S WCI  30
ONEILL         FOG       39  39  99 S3        29.36F VSB 1
BROKEN BOW     CLOUDY    35  33  92 W5        29.37S WCI  31
IMPERIAL       CLOUDY    36  33  89 NW10      29.43R WCI  28
NORTH PLATTE   CLOUDY    34  31  88 W6        29.41S WCI  29
MCCOOK         CLOUDY    36  34  92 NW8       29.41S WCI  30

...EASTERN NEBRASKA...

CITY           SKY/WX    TMP DP  RH WIND       PRES   REMARKS
NORFOLK        CLOUDY    38  37  97 SE7       29.38F FOG     WCI  33
SO SIOUX CITY  CLOUDY    39  38  96 SE7       29.41F FOG     WCI  34
TEKAMAH        LGT RAIN  38  37  97 SE7       29.41F VSB 1/4 WCI  33
COLUMBUS       CLOUDY    39  37  93 CALM      29.40S
ALBION         RAIN     N/A N/A N/A CALM      29.38S VSB 1/2
OMAHA EPPLEY   CLOUDY    41  38  89 SE6       29.41F FOG
OFFUTT AFB     LGT RAIN  41  41 100 E6        29.41F VSB 1/2
MILLARD        LGT RAIN  42  41  97 SE3       29.41F VSB 1/4
LINCOLN        LGT RAIN  42  41  96 CALM      29.41F VSB 1/2
NEBRASKA CITY  LGT RAIN  41  41 100 SE5       29.40F VSB 1/2
BEATRICE       FOG       44  44 100 W6        29.39F VSB 3/4
FALLS CITY     FOG       44  44 100 S8        29.42R VSB 1

...NORTHERN KANSAS...

CITY           SKY/WX    TMP DP  RH WIND       PRES   REMARKS
GOODLAND       CLEAR     32  31  96 W10       29.46R WCI  24
HILL CITY      CLOUDY    39  38  96 SW6       29.43S WCI  35
NORTON         DRIZZLE   36  32  87 SW5       29.40F WCI  32
PHILLIPSBURG   CLOUDY    36  36 100 SW5       29.43S WCI  32
SMITH CENTER   FOG       36  36 100 W3        29.42F VSB 1/4
HAYS           CLEAR     35  33  92 W7        29.46R WCI  29
RUSSELL        CLOUDY    38  36  92 SW9       29.43R WCI  31
CONCORDIA      FOG       42  42 100 SW6       29.42R VSB 1/2
SALINA         LGT RAIN  43  41  93 W7        29.45R FOG
TOPEKA         FOG       40  38  93 SE3       29.43R VSB 1/4



USA.gov is the U.S. government's official web portal to all federal, state and local government web resources and services.